DW6615 Weather Reports


Display with metric or nautical units.
time (UTC)temp
F
wind
direction
speed
MPH
gust
MPH
rain 1hr
in
rain 24hr
in
rain mn
in
humidity
%
barometer
mb
20260506201854 61 200 1.0 4.0 0.00 0.34 0.34 96 1006.6
20260506201619 61 218 1.0 4.0 0.00 0.34 0.34 96 1005.9
20260506201344 61 258 0.0 6.0 0.00 0.34 0.34 96 1006.6
20260506200914 61 204 1.0 7.0 0.00 0.34 0.34 96 1006.6
20260506200405 61 268 2.0 6.0 0.00 0.34 0.34 96 1006.6
20260506200124 61 247 1.0 7.0 0.00 0.34 0.34 96 1006.0
20260506195848 61 198 2.0 7.0 0.00 0.34 0.34 96 1006.6
20260506195357 61 255 2.0 7.0 0.00 0.34 0.34 97 1006.6
20260506194900 61 227 1.0 6.0 0.00 0.34 0.34 97 1006.7
20260506194622 60 249 2.0 6.0 0.00 0.34 0.34 97 1006.0
20260506194350 61 223 2.0 6.0 0.00 0.34 0.34 97 1006.7
20260506193854 61 197 1.0 5.0 0.00 0.34 0.34 97 1006.7
20260506193344 61 192 2.0 5.0 0.00 0.34 0.34 97 1006.7
20260506193123 60 256 1.0 5.0 0.00 0.34 0.34 97 1006.0
20260506192850 61 243 2.0 6.0 0.00 0.34 0.34 98 1006.7
20260506192358 60 225 2.0 6.0 0.00 0.34 0.34 98 1006.7
20260506191840 60 216 2.0 8.0 0.00 0.34 0.34 98 1006.7
20260506191604 60 227 1.0 8.0 0.01 0.34 0.34 98 1006.1
20260506191410 60 238 3.0 8.0 0.01 0.34 0.34 98 1006.8
20260506190849 60 247 2.0 5.0 0.01 0.34 0.34 98 1006.8
20260506190357 60 244 1.0 4.0 0.01 0.34 0.34 98 1007.0
20260506190111 59 241 1.0 4.0 0.01 0.34 0.34 98 1006.3
20260506185854 60 239 1.0 5.0 0.02 0.34 0.34 98 1007.0
20260506185406 60 203 2.0 6.0 0.02 0.34 0.34 98 1007.0
20260506184850 60 206 2.0 6.0 0.03 0.34 0.34 98 1007.1
20260506184611 59 202 1.0 6.0 0.03 0.34 0.34 98 1006.5
20260506184357 60 188 1.0 5.0 0.04 0.34 0.34 98 1007.2
20260506183839 59 203 2.0 7.0 0.04 0.34 0.34 98 1007.3
20260506183411 59 220 3.0 7.0 0.04 0.34 0.34 98 1007.3
20260506183012 59 204 1.0 5.0 0.04 0.34 0.34 98 1006.6
20260506182910 59 256 1.0 5.0 0.04 0.34 0.34 98 1007.4
20260506182337 59 238 2.0 9.0 0.05 0.34 0.34 98 1007.3
20260506181845 59 185 1.0 9.0 0.05 0.34 0.34 98 1007.5
20260506181607 59 175 1.0 9.0 0.04 0.33 0.33 98 1006.8
20260506181348 59 239 2.0 6.0 0.05 0.33 0.33 98 1007.5
20260506180853 59 176 2.0 6.0 0.05 0.33 0.33 98 1007.5
20260506180343 59 160 1.0 6.0 0.06 0.33 0.33 98 1007.5
20260506180121 59 179 1.0 6.0 0.06 0.33 0.33 98 1006.7
20260506175846 59 260 2.0 5.0 0.06 0.32 0.32 98 1007.6
20260506175356 59 266 1.0 6.0 0.08 0.32 0.32 98 1007.6
20260506174843 59 195 1.0 6.0 0.07 0.31 0.31 97 1007.6
20260506174610 59 261 2.0 5.0 0.07 0.31 0.31 97 1006.9
20260506174353 59 187 2.0 7.0 0.07 0.30 0.30 97 1007.6
20260506173841 59 233 2.0 7.0 0.09 0.30 0.30 97 1007.6
20260506173352 59 182 3.0 9.0 0.09 0.30 0.30 97 1007.6
20260506173112 59 228 2.0 9.0 0.09 0.30 0.30 97 1006.7
20260506172916 60 215 4.0 9.0 0.08 0.29 0.29 97 1007.5
20260506172345 59 192 3.0 7.0 0.08 0.29 0.29 97 1007.5
20260506171850 60 177 3.0 7.0 0.09 0.29 0.29 97 1007.6
20260506171619 59 228 2.0 7.0 0.09 0.28 0.28 97 1006.7
20260506171339 60 187 3.0 11.0 0.08 0.28 0.28 97 1007.5
20260506170846 60 164 1.0 11.0 0.08 0.28 0.28 97 1007.6
20260506170355 60 188 2.0 9.0 0.07 0.27 0.27 97 1007.7
20260506170113 59 187 2.0 11.0 0.07 0.27 0.27 96 1006.9
20260506165855 60 210 3.0 11.0 0.07 0.26 0.26 96 1007.8
20260506165345 60 197 5.0 11.0 0.05 0.24 0.24 96 1007.8
20260506164854 60 194 3.0 10.0 0.05 0.24 0.24 96 1007.7
20260506164621 59 151 2.0 10.0 0.05 0.23 0.23 96 1006.9
20260506164343 60 188 1.0 10.0 0.05 0.23 0.23 96 1007.8
20260506163356 60 173 3.0 8.0 0.04 0.21 0.21 96 1007.9
20260506163109 59 180 3.0 10.0 0.05 0.21 0.21 96 1007.1
20260506162850 60 223 3.0 10.0 0.06 0.21 0.21 96 1007.9
20260506162359 60 206 4.0 10.0 0.07 0.21 0.21 96 1007.8
20260506161845 60 221 3.0 11.0 0.07 0.20 0.20 96 1007.8
20260506161614 60 187 3.0 12.0 0.08 0.20 0.20 96 1007.0
20260506161417 60 158 2.0 9.0 0.09 0.20 0.20 96 1007.7
20260506160905 60 200 4.0 9.0 0.10 0.20 0.20 96 1007.7
20260506160355 60 186 4.0 11.0 0.10 0.20 0.20 96 1007.7
20260506160116 60 168 2.0 11.0 0.10 0.20 0.20 96 1006.8
20260506155355 60 139 5.0 11.0 0.09 0.19 0.19 96 1007.6
20260506154844 60 192 4.0 9.0 0.10 0.19 0.19 96 1007.8
20260506154618 59 163 3.0 9.0 0.09 0.18 0.18 96 1007.1
20260506154354 60 190 4.0 9.0 0.09 0.18 0.18 96 1008.1
20260506153845 60 233 3.0 10.0 0.09 0.17 0.17 96 1008.3
20260506153354 60 206 2.0 10.0 0.09 0.17 0.17 95 1008.4
20260506153001 59 189 2.0 9.0 0.08 0.16 0.16 95 1007.8
20260506152901 60 187 3.0 9.0 0.08 0.15 0.15 95 1008.6
20260506152410 60 177 3.0 8.0 0.07 0.14 0.14 95 1008.7
20260506151838 60 219 3.0 12.0 0.07 0.13 0.13 95 1008.8
20260506151605 60 197 4.0 12.0 0.06 0.12 0.12 94 1008.0
20260506151410 60 166 3.0 12.0 0.06 0.11 0.11 94 1008.7
20260506150855 61 156 4.0 13.0 0.05 0.10 0.10 94 1008.8
20260506150341 61 109 5.0 7.0 0.06 0.10 0.10 94 1008.7
20260506150125 60 177 2.0 11.0 0.06 0.10 0.10 94 1007.9
20260506145845 61 190 4.0 11.0 0.06 0.10 0.10 94 1008.6
20260506145415 61 220 5.0 11.0 0.05 0.09 0.10 94 1008.4
20260506144843 61 190 3.0 8.0 0.05 0.09 0.09 94 1008.5
20260506144611 60 187 1.0 6.0 0.06 0.09 0.09 95 1007.7
20260506144351 61 174 2.0 7.0 0.06 0.09 0.09 95 1008.6
20260506143839 61 172 2.0 7.0 0.05 0.08 0.08 94 1008.5
20260506143350 61 203 2.0 6.0 0.05 0.08 0.08 94 1008.4
20260506143108 60 192 1.0 6.0 0.05 0.08 0.08 94 1007.6
20260506142854 61 185 1.0 6.0 0.04 0.07 0.07 94 1008.3
20260506142358 61 207 1.0 8.0 0.04 0.07 0.07 93 1008.5
20260506141844 61 185 2.0 8.0 0.04 0.06 0.06 93 1008.6
20260506141606 60 204 2.0 8.0 0.04 0.06 0.06 93 1007.9
20260506141351 61 184 2.0 6.0 0.03 0.05 0.05 93 1008.7
20260506140847 61 216 2.0 6.0 0.03 0.05 0.05 93 1008.7
20260506140127 60 187 2.0 6.0 0.03 0.04 0.04 92 1007.8
20260506135850 61 208 2.0 6.0 0.03 0.04 0.04 92 1008.6
20260506135339 61 224 2.0 5.0 0.03 0.04 0.04 92 1008.6
20260506134843 61 198 2.0 5.0 0.03 0.04 0.04 92 1008.4
20260506134606 61 196 1.0 5.0 0.02 0.03 0.03 92 1007.6
20260506134353 61 184 2.0 7.0 0.03 0.03 0.03 92 1008.4
20260506133856 61 175 2.0 7.0 0.03 0.03 0.03 92 1008.6
20260506133348 61 187 2.0 5.0 0.03 0.03 0.03 92 1008.7
20260506133110 61 197 1.0 5.0 0.03 0.03 0.03 92 1007.9
20260506132852 61 201 2.0 5.0 0.03 0.03 0.03 92 1008.8
20260506132358 61 175 2.0 5.0 0.03 0.03 0.03 91 1008.8
20260506131854 61 152 1.0 4.0 0.02 0.02 0.02 91 1008.8
20260506131622 61 240 1.0 4.0 0.02 0.02 0.02 91 1008.1
20260506131344 61 199 2.0 5.0 0.02 0.02 0.02 91 1008.9
20260506130848 61 191 1.0 5.0 0.02 0.02 0.02 90 1009.0
20260506130357 62 212 1.0 3.0 0.01 0.01 0.01 90 1008.9
20260506130119 61 187 0.0 5.0 0.01 0.01 0.01 90 1008.1
20260506125841 62 175 1.0 5.0 0.01 0.01 0.01 90 1008.9
20260506125349 62 221 2.0 5.0 0.01 0.01 0.01 89 1009.0
20260506124614 61 179 1.0 4.0 0.01 0.01 0.01 88 1008.2
20260506123402 63 205 2.0 5.0 0.00 0.00 0.00 86 1009.0
20260506123124 62 182 1.0 5.0 0.00 0.00 0.00 86 1008.1
20260506122846 63 197 2.0 5.0 0.00 0.00 0.00 86 1008.7
20260506122356 63 213 2.0 7.0 0.00 0.00 0.00 85 1008.8
20260506121838 63 227 2.0 7.0 0.00 0.00 0.00 85 1008.7
20260506121608 63 164 1.0 5.0 0.00 0.00 0.00 84 1007.9
20260506121348 63 207 2.0 7.0 0.00 0.00 0.00 84 1008.6
20260506120402 64 202 2.0 9.0 0.00 0.00 0.00 82 1008.5
20260506120124 63 234 3.0 9.0 0.00 0.00 0.00 82 1007.8
20260506115845 64 141 3.0 9.0 0.00 0.00 0.00 81 1008.7
20260506115351 64 245 3.0 9.0 0.00 0.00 0.00 80 1008.6
20260506114847 64 190 4.0 10.0 0.00 0.00 0.00 80 1008.6
20260506114613 63 210 2.0 6.0 0.00 0.00 0.00 80 1007.9
20260506114350 64 192 3.0 8.0 0.00 0.00 0.00 80 1008.6
20260506113840 64 175 327.0 327.0 0.00 0.00 0.00 80 1008.4
20260506113354 64 241 4.0 10.0 0.00 0.00 0.00 80 1008.4
20260506113116 64 177 2.0 9.0 0.00 0.00 0.00 80 1007.7
20260506112856 64 194 4.0 9.0 0.00 0.00 0.00 80 1008.5
20260506112357 64 183 4.0 15.0 0.00 0.00 0.00 80 1008.5
20260506111845 64 172 4.0 15.0 0.00 0.00 0.00 80 1008.6
20260506111611 64 195 5.0 15.0 0.00 0.00 0.00 79 1007.9
20260506111413 64 162 3.0 14.0 0.00 0.00 0.00 79 1008.6
20260506110855 64 191 4.0 14.0 0.00 0.00 0.00 79 1008.6
20260506110345 64 177 4.0 11.0 0.00 0.00 0.00 79 1008.6
20260506110007 64 219 3.0 11.0 0.00 0.00 0.00 79 1007.7
20260506105906 64 199 4.0 11.0 0.00 0.00 0.00 79 1008.4
20260506105349 64 149 3.0 11.0 0.00 0.00 0.00 79 1008.3
20260506104837 64 196 5.0 11.0 0.00 0.00 0.00 78 1008.2
20260506104605 64 143 4.0 12.0 0.00 0.00 0.00 78 1007.3
20260506104347 64 170 6.0 11.0 0.00 0.00 0.00 78 1008.1
20260506103838 64 191 3.0 9.0 0.00 0.00 0.00 78 1008.1
20260506103350 64 162 4.0 10.0 0.00 0.00 0.00 78 1008.0
20260506103109 64 218 2.0 10.0 0.00 0.00 0.00 78 1007.2
20260506102908 64 166 3.0 10.0 0.00 0.00 0.00 78 1007.9
20260506102418 64 179 4.0 11.0 0.00 0.00 0.00 78 1008.0
20260506101904 64 154 3.0 9.0 0.00 0.00 0.00 78 1007.9
20260506101609 64 193 2.0 9.0 0.00 0.00 0.00 78 1007.1
20260506101349 64 194 2.0 9.0 0.00 0.00 0.00 78 1007.9
20260506100851 64 162 2.0 11.0 0.00 0.00 0.00 77 1008.0
20260506100352 64 198 4.0 11.0 0.00 0.00 0.00 77 1008.0
20260506100110 64 200 2.0 7.0 0.00 0.00 0.00 77 1007.1
20260506095850 64 192 2.0 7.0 0.00 0.00 0.00 77 1008.0
20260506095350 64 172 2.0 7.0 0.00 0.00 0.00 77 1008.1
20260506094852 64 220 2.0 7.0 0.00 0.00 0.00 76 1008.1
20260506094614 64 168 4.0 7.0 0.00 0.00 0.00 76 1007.2
20260506094352 64 187 3.0 8.0 0.00 0.00 0.00 76 1008.1
20260506093849 64 176 1.0 7.0 0.00 0.00 0.00 76 1008.2
20260506093351 65 199 1.0 7.0 0.00 0.00 0.00 75 1008.0
20260506093112 64 166 1.0 9.0 0.00 0.00 0.00 75 1007.2
20260506092847 65 190 3.0 9.0 0.00 0.00 0.00 75 1008.0
20260506092348 65 152 3.0 9.0 0.00 0.00 0.00 75 1008.0
20260506091847 65 204 1.0 7.0 0.00 0.00 0.00 74 1008.1
20260506091610 64 143 2.0 7.0 0.00 0.00 0.00 74 1007.3
20260506091349 65 202 2.0 7.0 0.00 0.00 0.00 74 1008.1
20260506090914 65 225 3.0 10.0 0.00 0.00 0.00 74 1008.1
20260506090355 65 194 3.0 10.0 0.00 0.00 0.00 73 1008.0
20260506090117 65 178 2.0 6.0 0.00 0.00 0.00 73 1007.3
20260506085851 65 193 2.0 6.0 0.00 0.03 0.00 73 1008.1
20260506085351 65 191 2.0 5.0 0.00 0.03 0.00 73 1008.1
20260506084853 65 168 2.0 5.0 0.00 0.03 0.00 72 1008.1
20260506084617 65 193 2.0 7.0 0.00 0.03 0.00 72 1007.5
20260506084355 65 197 2.0 10.0 0.00 0.03 0.00 72 1008.2
20260506083839 65 203 2.0 10.0 0.00 0.03 0.00 72 1008.2
20260506083344 65 208 3.0 6.0 0.00 0.03 0.00 71 1008.2
20260506083105 65 187 1.0 8.0 0.00 0.03 0.00 71 1007.4
20260506082906 65 235 2.0 8.0 0.00 0.03 0.00 71 1008.2
20260506082408 65 187 4.0 8.0 0.00 0.03 0.00 71 1008.2
20260506081844 66 166 2.0 5.0 0.00 0.03 0.00 70 1008.2
20260506081606 65 196 1.0 5.0 0.00 0.03 0.00 70 1007.5
20260506081347 66 183 2.0 7.0 0.00 0.03 0.00 70 1008.2
20260506080848 66 173 2.0 7.0 0.00 0.03 0.00 69 1008.2
20260506080117 65 154 1.0 6.0 0.00 0.03 0.00 69 1007.5
20260506073421 66 200 1.0 6.0 0.00 0.03 0.00 67 1008.3
20260506073114 66 209 2.0 6.0 0.00 0.03 0.00 66 1007.6
20260506072915 66 166 2.0 7.0 0.00 0.03 0.00 66 1008.3
20260506072356 67 136 2.0 7.0 0.00 0.03 0.00 66 1008.3
20260506071853 67 185 3.0 6.0 0.00 0.03 0.00 66 1008.3
20260506071618 66 167 0.0 7.0 0.00 0.03 0.00 66 1007.7
20260506071419 67 195 2.0 7.0 0.00 0.03 0.00 65 1008.5
20260506070837 67 197 2.0 7.0 0.00 0.03 0.00 65 1008.4
20260506070404 67 185 3.0 7.0 0.00 0.03 0.00 65 1008.5
20260506070125 66 187 2.0 7.0 0.00 0.03 0.00 65 1007.8
20260506062358 68 198 2.0 9.0 0.00 0.03 0.00 62 1008.7
20260506061857 68 179 2.0 9.0 0.00 0.03 0.00 62 1008.8
20260506061620 67 233 3.0 9.0 0.00 0.03 0.00 62 1008.1
20260506061357 67 202 1.0 6.0 0.00 0.03 0.00 63 1008.8
20260506060856 67 191 3.0 6.0 0.00 0.03 0.00 62 1008.9
20260506060358 67 143 3.0 6.0 0.00 0.03 0.00 62 1008.8
20260506060118 67 189 2.0 6.0 0.00 0.03 0.00 62 1008.2
20260506051354 68 208 1.0 6.0 0.00 0.03 0.00 60 1009.3
20260506050854 68 203 2.0 7.0 0.00 0.03 0.00 60 1009.3
20260506050356 68 202 3.0 7.0 0.00 0.03 0.00 60 1009.4
20260506050120 67 222 1.0 7.0 0.00 0.03 0.00 60 1008.6
20260506044854 67 192 2.0 6.0 0.00 0.03 0.00 60 1009.4
20260506044640 67 187 1.0 6.0 0.00 0.03 0.00 59 1008.6
20260506044357 67 219 2.0 6.0 0.00 0.03 0.00 59 1009.4
20260506043854 67 231 1.0 6.0 0.00 0.03 0.00 59 1009.4
20260506043358 67 192 2.0 6.0 0.00 0.03 0.00 59 1009.3
20260506043117 67 220 2.0 6.0 0.00 0.03 0.00 59 1008.6
20260506042918 67 196 2.0 6.0 0.00 0.03 0.00 59 1009.4
20260506042359 67 202 3.0 6.0 0.00 0.03 0.00 59 1009.3
20260506041838 67 189 2.0 7.0 0.00 0.03 0.00 59 1009.3
20260506041505 67 187 2.0 7.0 0.00 0.03 0.00 59 1008.7
20260506041401 67 224 2.0 7.0 0.00 0.03 0.00 59 1009.4
20260506040903 67 227 1.0 4.0 0.00 0.03 0.00 59 1009.4
20260506040404 67 204 1.0 5.0 0.00 0.03 0.00 59 1009.3
20260506040005 67 206 1.0 5.0 0.00 0.03 0.00 59 1008.6
20260506035902 67 241 2.0 5.0 0.00 0.03 0.03 59 1009.3
20260506034915 67 195 1.0 5.0 0.00 0.03 0.03 59 1009.3
20260506034612 67 191 2.0 5.0 0.00 0.03 0.03 59 1008.6
20260506034355 68 232 1.0 5.0 0.00 0.03 0.03 59 1009.4
20260506033856 68 195 1.0 5.0 0.00 0.03 0.03 58 1009.3
20260506033401 68 200 3.0 5.0 0.00 0.03 0.03 58 1009.4
20260506033115 68 184 1.0 4.0 0.00 0.03 0.03 58 1008.6
20260506032854 68 197 1.0 4.0 0.00 0.03 0.03 57 1009.3
20260506032339 69 197 1.0 4.0 0.00 0.03 0.03 57 1009.3
20260506031855 69 209 1.0 3.0 0.00 0.03 0.03 56 1009.3
20260506031620 69 272 0.0 4.0 0.00 0.03 0.03 56 1008.6
20260506031339 69 202 1.0 4.0 0.00 0.03 0.03 56 1009.3
20260506030839 69 204 2.0 5.0 0.00 0.03 0.03 55 1009.3
20260506030356 70 207 2.0 7.0 0.00 0.03 0.03 55 1009.3
20260506030109 69 251 1.0 7.0 0.00 0.03 0.03 55 1008.6
20260506025851 70 186 2.0 7.0 0.00 0.03 0.03 54 1009.3
20260506025354 70 183 3.0 7.0 0.00 0.03 0.03 54 1009.2
20260506024852 70 208 2.0 6.0 0.00 0.03 0.03 54 1009.1
20260506024617 69 134 1.0 6.0 0.00 0.03 0.03 54 1008.5
20260506024355 70 209 3.0 6.0 0.00 0.03 0.03 53 1009.1
20260506023855 70 196 3.0 7.0 0.00 0.03 0.03 53 1009.2
20260506023359 70 220 3.0 6.0 0.00 0.03 0.03 52 1009.3
20260506023114 70 158 1.0 6.0 0.00 0.03 0.03 53 1008.6
20260506022855 70 169 3.0 6.0 0.00 0.03 0.03 52 1009.3
20260506022338 71 164 2.0 6.0 0.00 0.03 0.03 52 1009.4
20260506021857 71 202 2.0 7.0 0.00 0.03 0.03 51 1009.4
20260506021620 70 155 1.0 7.0 0.00 0.03 0.03 51 1008.7
20260506021339 71 227 3.0 7.0 0.00 0.03 0.03 51 1009.4
20260506020900 71 189 1.0 6.0 0.00 0.03 0.03 51 1009.3
20260506020345 71 144 2.0 9.0 0.00 0.03 0.03 51 1009.4
20260506020120 71 206 2.0 9.0 0.00 0.03 0.03 50 1008.6
20260506015842 71 218 2.0 9.0 0.00 0.03 0.03 50 1009.4
20260506015402 72 188 4.0 8.0 0.00 0.03 0.03 50 1009.2
20260506014844 72 254 2.0 12.0 0.00 0.03 0.03 50 1009.1
20260506014610 71 179 2.0 12.0 0.00 0.03 0.03 50 1008.5
20260506013844 72 232 4.0 11.0 0.00 0.03 0.03 49 1009.1
20260506013406 72 214 6.0 11.0 0.00 0.03 0.03 49 1009.0
20260506013106 72 197 3.0 11.0 0.00 0.03 0.03 49 1008.4
20260506012844 72 177 4.0 8.0 0.00 0.03 0.03 49 1009.0
20260506012345 72 166 2.0 7.0 0.00 0.03 0.03 49 1008.9
20260506011848 72 131 3.0 8.0 0.00 0.03 0.03 49 1008.9
20260506011610 72 212 1.0 8.0 0.00 0.03 0.03 49 1008.2
20260506011349 72 187 2.0 8.0 0.00 0.03 0.03 49 1008.8
20260506010852 72 183 3.0 9.0 0.00 0.03 0.03 49 1008.8
20260506010354 72 160 3.0 9.0 0.00 0.03 0.03 49 1008.7
20260506010118 72 189 1.0 9.0 0.00 0.03 0.03 49 1008.1
20260506005851 72 233 2.0 6.0 0.00 0.03 0.03 49 1008.7
20260506005413 73 139 3.0 6.0 0.00 0.03 0.03 48 1008.6
20260506004854 73 177 2.0 6.0 0.00 0.03 0.03 48 1008.5
20260506004616 72 185 1.0 6.0 0.00 0.03 0.03 48 1007.8
20260506004355 73 172 2.0 6.0 0.00 0.03 0.03 48 1008.5
20260506003856 73 194 1.0 6.0 0.00 0.03 0.03 48 1008.5
20260506003124 73 183 2.0 7.0 0.00 0.03 0.03 47 1007.9
20260506002848 73 195 3.0 7.0 0.00 0.03 0.03 47 1008.5
20260506002356 73 188 2.0 9.0 0.00 0.03 0.03 47 1008.3
20260506001846 74 176 1.0 9.0 0.00 0.03 0.03 47 1008.3
20260506001611 73 239 3.0 9.0 0.00 0.03 0.03 47 1007.6
20260506001355 74 207 2.0 9.0 0.00 0.03 0.03 47 1008.2
20260506000401 74 160 3.0 11.0 0.00 0.03 0.03 46 1008.1
20260506000114 74 206 4.0 11.0 0.00 0.03 0.03 46 1007.5
20260505235840 74 172 4.0 11.0 0.00 0.03 0.03 46 1008.0
20260505235351 75 173 5.0 8.0 0.00 0.03 0.03 46 1008.0
20260505234858 75 176 4.0 11.0 0.00 0.03 0.03 46 1008.1
20260505234611 74 193 3.0 11.0 0.00 0.03 0.03 46 1007.5
20260505234346 75 185 2.0 11.0 0.00 0.03 0.03 45 1008.1
20260505233853 75 252 4.0 11.0 0.00 0.03 0.03 45 1008.0
20260505233403 76 154 5.0 11.0 0.00 0.03 0.03 44 1007.9
20260505233106 75 188 4.0 12.0 0.00 0.03 0.03 44 1007.2
20260505232846 76 189 4.0 14.0 0.00 0.03 0.03 44 1007.9
20260505232336 76 254 3.0 14.0 0.00 0.03 0.03 42 1007.8
20260505231906 76 185 5.0 11.0 0.00 0.03 0.03 42 1007.8
20260505231610 76 216 4.0 11.0 0.00 0.03 0.03 42 1007.2
20260505231353 76 123 5.0 12.0 0.00 0.03 0.03 42 1007.8
20260505230854 76 166 4.0 16.0 0.00 0.03 0.03 42 1007.8
20260505230406 76 212 4.0 16.0 0.00 0.03 0.03 41 1007.7
20260505230107 76 195 6.0 16.0 0.00 0.03 0.03 42 1007.1
20260505225849 76 213 5.0 15.0 0.00 0.03 0.03 41 1007.7
20260505225357 77 191 5.0 15.0 0.00 0.03 0.03 41 1007.8
20260505224855 77 149 5.0 16.0 0.00 0.03 0.03 41 1007.7
20260505224620 76 185 4.0 16.0 0.00 0.03 0.03 42 1007.1
20260505224339 77 218 5.0 17.0 0.00 0.03 0.03 41 1007.8
20260505223847 77 193 6.0 17.0 0.00 0.03 0.03 41 1007.6
20260505223359 77 179 6.0 13.0 0.00 0.03 0.03 41 1007.6
20260505223116 77 204 5.0 11.0 0.00 0.03 0.03 41 1006.9
20260505222839 78 183 4.0 13.0 0.00 0.03 0.03 40 1007.6
20260505222402 78 164 5.0 17.0 0.00 0.03 0.03 40 1007.5
20260505221850 79 144 6.0 17.0 0.00 0.03 0.03 40 1007.6
20260505221618 78 188 5.0 13.0 0.00 0.03 0.03 39 1006.9
20260505221340 79 173 6.0 15.0 0.00 0.03 0.03 40 1007.5
20260505220848 79 191 8.0 15.0 0.00 0.03 0.03 40 1007.5
20260505220359 79 281 5.0 14.0 0.00 0.03 0.03 41 1007.4
20260505220116 78 179 5.0 20.0 0.00 0.03 0.03 40 1006.8
20260505215839 79 160 6.0 20.0 0.00 0.03 0.03 40 1007.5
20260505215345 79 214 7.0 20.0 0.00 0.03 0.03 40 1007.4
20260505214849 79 147 5.0 11.0 0.00 0.03 0.03 41 1007.4
20260505214626 79 212 5.0 14.0 0.00 0.03 0.03 40 1006.8
20260505213849 79 166 5.0 16.0 0.00 0.03 0.03 40 1007.5
20260505213359 79 222 3.0 16.0 0.00 0.03 0.03 40 1007.5
20260505213000 79 206 4.0 10.0 0.00 0.03 0.03 40 1006.9
20260505212900 79 183 3.0 11.0 0.00 0.03 0.03 40 1007.5
20260505212349 79 156 3.0 10.0 0.00 0.03 0.03 40 1007.4
20260505211852 79 151 4.0 19.0 0.00 0.03 0.03 42 1007.4
20260505211621 79 191 4.0 19.0 0.00 0.03 0.03 40 1006.7
20260505211340 79 177 6.0 19.0 0.00 0.03 0.03 40 1007.3
20260505210908 79 185 5.0 19.0 0.00 0.03 0.03 40 1007.3
20260505210419 79 174 5.0 15.0 0.00 0.03 0.03 40 1007.3
20260505210004 79 158 7.0 16.0 0.00 0.03 0.03 40 1006.7
20260505205903 79 197 6.0 16.0 0.00 0.03 0.03 40 1007.3
20260505205354 80 172 4.0 17.0 0.00 0.03 0.03 40 1007.3
20260505204858 80 178 4.0 17.0 0.00 0.03 0.03 41 1007.3
20260505204605 79 185 4.0 17.0 0.00 0.03 0.03 40 1006.7
20260505204346 80 175 7.0 18.0 0.00 0.03 0.03 40 1007.2
20260505203849 79 237 3.0 15.0 0.00 0.03 0.03 43 1007.3
20260505203340 79 218 7.0 15.0 0.00 0.03 0.03 41 1007.3
20260505203122 79 201 7.0 15.0 0.00 0.03 0.03 41 1006.8
20260505202846 79 183 6.0 15.0 0.00 0.03 0.03 42 1007.4
20260505202352 80 165 6.0 16.0 0.00 0.03 0.03 41 1007.3